User: anonymous   Login
Location: Unspecified
(0.0000°N, 0.0000°E)
Time: 06:10:51
(UTC+00:00)
Language:

Tiros 1 - Orbit

View from above orbital plane
View from above orbital plane
View from above satellite
View from above satellite

Ground track
Ground track

The orbit data is extracted from the following two-line orbital elements,

1 00029U 60002B   15182.49867437 -.00000036  00000-0  25789-4 0  9999
2 00029 048.3787 222.1658 0023835 037.1967 323.0591 14.73835060951173
Epoch (UTC): 01 July 2015 11:58:05
Eccentricity: 0.0023835
inclination: 48.3787°
perigee height: 632 km
apogee height: 665 km
right ascension of ascending node: 222.1658°
argument of perigee: 37.1967°
revolutions per day: 14.73835060
mean anomaly at epoch: 323.0591°
orbit number at epoch: 95117

The dashed part of the orbit path shows where the satellite is in the earth's shadow,  

DLR